Location: Bennebroek
(52.3291°N, 4.6078°E)
Time: 02:47:59
(UTC+00:00)

Daily predictions for brighter satellites

Satellite Brightness Start Highest point End
(mag) Time Altitude Azimuth Time Altitude Azimuth Time Altitude Azimuth
CENTAUR R/B 4.3 02:03:00 24° ESE 02:03:00 24° ESE 02:07:45 10° ENE
Cosmos 1697 Rocket 3.9 02:34:59 38° ENE 02:34:59 38° ENE 02:39:40 10° ESE
Cosmos 2344 3.8 02:37:40 56° SE 02:38:03 56° SE 02:45:55 10° NE
ADEOS II 4.1 02:33:45 10° NNE 02:35:25 21° N 02:35:25 21° N
Lacrosse 4 Rocket 4.2 02:42:01 15° E 02:42:01 15° E 02:43:09 10° ENE
USA 238 DEB 4.1 02:41:03 54° ESE 02:41:03 54° ESE 02:47:16 10° NE
USA 238 4.1 02:41:08 54° ESE 02:41:08 54° ESE 02:47:23 10° NE
NOSS 3-2 (A) 4.0 02:44:26 53° E 02:44:26 53° E 02:49:56 10° NE
Resurs 1-4 Rocket 4.4 02:50:06 10° N 02:50:58 14° N 02:50:58 14° N
Cosmos 1980 Rocket 3.6 02:54:35 24° N 02:57:02 34° NE 03:02:06 10° ESE
SL-16 R/B 4.3 03:00:37 16° N 03:00:37 16° N 03:03:05 10° NNE
USA 234 3.2 02:53:04 10° ENE 02:59:22 83° NE 02:59:22 83° NE
ADEOS Rocket 3.3 02:57:57 10° SE 03:03:17 56° ENE 03:08:52 10° N
CZ-2D R/B 4.4 03:09:37 10° N 03:10:17 13° NNW 03:10:17 13° NNW
IDEFIX/ARIANE 42P 3.4 03:15:25 10° NNE 03:18:52 42° N 03:18:52 42° N
Cosmos 2278 4.4 03:24:14 23° NNW 03:27:37 51° NE 03:33:08 10° SE
Cosmos 2322 Rocket 4.3 03:24:00 10° NNW 03:28:23 22° NNE 03:32:43 10° E
MSX 3.6 03:26:01 10° NNE 03:31:48 85° WNW 03:32:03 81° SW
ALOS 4.4 03:29:36 10° NE 03:33:27 25° E 03:37:18 10° SSE
In-Cosmos 22 4.0 03:35:41 74° S 03:36:12 85° E 03:41:43 10° NNE
Cosmos 2279 Rocket 3.8 03:30:42 10° NNW 03:43:01 10° S 03:36:37 69° WNW
Cosmos 1992 Rocket 4.4 03:34:01 23° NNW 03:37:15 60° ENE 03:42:24 10° SE
Cosmos 1833 Rocket 3.7 03:33:50 20° S 03:37:24 43° ESE 03:42:44 10° NE
CZ-4B R/B 3.3 03:34:32 10° SE 03:37:08 31° E 03:37:08 31° E
Cosmos 1674 4.2 03:42:36 32° NNE 03:42:36 32° NNE 03:44:47 10° NNE
Cosmos 1626 4.0 03:39:54 17° SE 03:42:01 30° E 03:45:17 10° NNE
NOSS 3-2 (C) 3.4 03:43:22 58° SW 03:44:39 84° SE 03:51:26 10° NE
Cosmos 1536 Rocket 3.8 03:48:18 65° N 03:48:18 65° N 03:52:10 10° N
Cosmos 2369 3.5 03:49:30 40° NW 03:51:40 84° WSW 03:57:19 10° SSE
CENTAUR R/B 2.5 03:50:12 50° SW 03:52:07 89° SE 03:59:31 10° NE
Cosmos 1484 Rocket 4.5 03:52:36 10° NNE 03:56:08 32° E 03:59:35 10° SSE
Cosmos 2082 Rocket 3.5 03:55:13 10° S 04:00:21 38° ESE 04:05:31 10° NE
Cosmos 1461 4.5 03:57:49 19° S 04:00:31 37° ESE 04:04:53 10° NE
PSLV R/B 3.4 04:00:23 10° NNE 04:04:42 87° WNW 04:05:31 58° SSW
SL-16 R/B 3.6 03:59:54 10° NNW 04:05:07 35° NE 04:10:19 10° ESE
CZ-2C R/B 2.3 04:01:18 10° NNE 04:06:21 85° WNW 04:08:51 29° SSW
ARIANE 5 R/B 3.7 04:02:47 10° N 04:05:38 25° NNW 04:05:38 25° NNW
CREW DRAGON DEMO-1 DEB 4.3 04:08:42 34° ESE 04:08:42 34° ESE 04:10:36 10° ESE
USA 290 4.4 04:06:41 12° SSE 04:09:03 26° ESE 04:11:51 10° NE
ISS -2.2 04:09:06 29° SSE 04:09:12 29° SSE 04:12:09 10° E
ADEOS II 4.0 04:14:49 10° NNW 04:16:21 14° NNW 04:16:21 14° NNW
Cosmos 1697 Rocket 2.8 04:16:50 38° WNW 04:18:30 49° WSW 04:23:56 10° S
Lacrosse 4 Rocket 1.2 04:18:22 63° WNW 04:18:35 65° NW 04:22:39 10° NNE
SKYMED 2 4.4 04:14:54 10° SE 04:19:06 51° ENE 04:23:20 10° N
Meteor 1-31 Rocket 4.0 04:17:09 10° NNE 04:20:58 44° E 04:24:44 10° S
COSMOS 2406 3.1 04:21:37 26° SW 04:24:55 77° WNW 04:30:38 10° NNE
Lacrosse 5 rocket 1.6 04:25:46 38° SSW 04:26:52 54° SE 04:30:36 10° ENE
FENGYUN 3A 3.9 04:22:52 10° NNE 04:28:20 73° ESE 04:33:46 10° S
Meteor 2-5 Rocket 3.8 04:23:08 10° S 04:28:52 85° E 04:34:47 10° NNE
Cosmos 2360 Rocket 3.9 04:24:32 10° NNW 04:29:23 28° NE 04:34:13 10° E
USA 238 DEB 3.9 04:28:30 31° W 04:31:37 54° NNW 04:38:32 10° NE
USA 238 3.9 04:28:35 31° W 04:31:43 54° NNW 04:38:38 10° NE
PAYLOAD A 4.2 04:27:55 10° N 04:32:49 50° WNW 04:35:50 23° SW
NOSS 3-2 (A) 3.9 04:31:50 31° W 04:34:31 48° NNW 04:41:20 10° NE
Cosmos 1726 Rocket 3.5 04:33:45 10° NNW 04:38:13 70° W 04:42:38 10° S
SAR-Lupe-4 3.4 04:35:22 10° S 04:38:56 72° WSW 04:42:32 10° NNW
ATLAS 3B R/B 2.9 04:33:50 10° SSW 04:40:20 70° SE 04:47:01 10° NE
ERS-2 3.5 04:37:29 10° SSW 04:39:16 24° SSW 04:39:16 24° SSW
Cosmos 1025 Rocket 4.5 04:42:14 22° NW 04:42:14 22° NW 04:44:45 10° NNW
Cosmos 1980 Rocket 2.2 04:36:25 13° NW 04:41:21 58° WSW 04:46:50 10° SSE
USA 234 3.5 04:36:05 10° ENE 04:42:30 61° N 04:46:42 23° WNW
Cosmos 2228 3.2 04:39:07 10° NNW 04:43:18 47° W 04:47:30 10° SSW
Abrixas rocket 3.8 04:43:59 18° S 04:43:59 18° S 04:45:39 10° SSE
SL-16 R/B 4.5 04:44:19 10° NNW 04:46:10 11° N 04:48:01 10° NNE
Meteor 2-13 Rocket 4.4 04:41:04 10° SSW 04:47:14 78° W 04:53:24 10° N
Cosmos 1092 Rocket 3.9 04:42:01 10° S 04:48:12 85° W 04:54:30 10° N
ADEOS Rocket 3.5 04:44:40 10° SSW 04:49:18 27° W 04:54:04 10° NNW
ADEOS 3.5 04:44:11 10° NNE 04:49:26 78° WNW 04:54:39 10° SSW
Aureole 3 3.5 04:47:49 10° NNW 04:51:48 75° W 04:56:52 10° S
Nadezhda 4 Rocket 4.0 04:46:35 10° SSW 04:52:32 54° WNW 04:58:35 10° N
Cosmos 2344 3.9 04:47:42 22° W 04:52:37 54° NNW 05:01:19 10° NE
Cosmos 1606 Rocket 4.0 04:49:47 10° NNW 04:53:59 40° W 04:58:10 10° SSW
Cosmos 1400 Rocket 2.9 04:50:53 10° NNW 04:54:44 51° W 04:58:31 10° S
CZ-4B R/B 3.8 04:50:54 10° NNE 04:55:12 83° WNW 04:59:15 10° SSW
Cosmos 2219 Rocket 4.2 04:50:56 10° NNW 04:55:17 22° NNE 04:59:36 10° E
SAR-Lupe-1 4.2 04:53:23 10° S 04:56:51 49° W 05:00:22 10° NNW
IDEFIX/ARIANE 42P 4.1 04:56:18 10° NNW 04:59:25 16° NW 04:59:41 16° NW
S3M 4.4 05:00:10 10° N 05:06:27 68° ENE 05:12:47 10° SSE
COSMO-SKYMED 1 2.6 05:02:53 10° S 05:07:10 58° W 05:11:29 10° NNW
Cosmos 1300 3.4 05:04:48 10° NNW 05:08:10 30° W 05:11:31 10° SSW
ARGOS Delta rocket 4.1 05:03:06 10° N 05:08:30 77° WNW 05:13:59 10° SSW
CZ-4B R/B 2.6 05:07:11 10° SSW 05:09:58 22° W 05:10:16 22° W
ALOS 2.4 05:06:37 10° N 05:11:09 50° WNW 05:15:39 10° SW
Cosmos 2278 4.3 05:06:31 10° NW 05:11:37 35° WSW 05:16:41 10° S
Meteor 2-10 Rocket 3.4 05:07:55 10° NNW 05:12:57 81° W 05:18:01 10° S
Cosmos 2322 Rocket 2.5 05:07:44 10° NNW 05:13:27 73° NE 05:19:06 10° SE
Cosmos 1689 Rocket 2.6 05:13:47 10° SSW 05:16:30 35° W 05:19:16 10° NNW
Cosmos 1674 4.5 05:17:28 14° NW 05:17:28 14° NW 05:19:10 10° NNW
Cosmos 1626 3.1 05:14:35 12° WSW 05:17:16 26° WNW 05:20:26 10° N
SL-14 R/B 4.0 05:13:48 10° SW 05:17:27 33° WNW 05:21:10 10° N
Meteor 2-8 Rocket 4.5 05:12:28 10° NNW 05:18:35 63° W 05:24:38 10° S
deb Chang Zheng 4 3.8 05:17:08 10° N 05:21:12 44° WNW 05:25:15 10° SW
Cosmos 1833 Rocket 3.1 05:15:59 10° WSW 05:21:23 44° NW 05:26:47 10° NNE
MOS 1 Rocket 3.5 05:18:08 10° SSE 05:22:22 65° ENE 05:26:40 10° N
METEOR-M 4.2 05:18:53 10° N 05:24:06 54° WNW 05:29:17 10° SW
Cosmos 2084 3.7 05:21:18 10° SW 05:25:37 74° SE 05:30:03 10° NE
H-2A R/B 3.7 05:21:54 10° NNE 05:26:13 48° E 05:30:20 10° S
Cosmos 1315 Rocket 2.8 05:22:27 10° NNW 05:26:33 65° W 05:30:38 10° S
SJ-12 3.9 05:22:55 10° N 05:27:00 59° WNW 05:31:01 10° SSW
Cosmos 2058 Rocket 3.6 05:24:21 10° NNW 05:28:28 36° W 05:32:34 10° SSW
SL-19 R/B 4.0 05:25:53 10° N 05:28:31 37° WNW 05:31:11 10° SW
Cosmos 192 4.4 05:24:55 10° NNW 05:29:55 88° WSW 05:34:53 10° SSE
Cosmos 1484 Rocket 3.7 05:27:08 10° N 05:30:28 28° WNW 05:33:45 10° SW
ASTRO F (AKARI) 4.4 05:27:17 10° NNE 05:30:51 75° WNW 05:34:13 10° SSW
Elektron 1 3.6 05:28:28 10° SW 05:31:22 89° WSW 05:34:36 10° NE
Okean 1-7 Rocket 3.7 05:27:42 10° SSW 05:32:09 55° WNW 05:36:36 10° N
H-2A R/B 3.0 05:29:16 10° NNE 05:33:05 73° ESE 05:36:56 10° S
SL-27 R/B 4.3 05:29:48 10° S 05:33:09 36° ESE 05:36:31 10° NE
Cosmos 1553 Rocket 4.0 05:29:45 10° NNW 05:35:48 60° W 05:41:44 10° S
NOSS 3-2 (C) 4.2 05:30:49 12° W 05:36:16 41° NNW 05:42:59 10° NE
Cosmos 1461 3.5 05:35:05 10° WSW 05:39:35 48° NW 05:44:13 10° NE
Meteor PRIRODA 3.7 05:36:03 10° N 05:39:37 52° WNW 05:43:11 10° SSW
Meteor 2-15 Rocket 4.4 05:34:01 10° NNW 05:40:09 78° W 05:46:13 10° S
Meteor 1-24 Rocket 4.2 05:35:22 10° SW 05:40:41 39° WNW 05:46:13 10° N
Cosmos 1892 Rocket 4.2 05:36:51 10° SW 05:40:50 34° WNW 05:44:51 10° N
CREW DRAGON DEMO-1 DEB 4.4 05:40:30 11° W 05:42:49 22° SSW 05:45:13 10° SSE
USA 290 3.3 05:40:39 10° WSW 05:43:27 26° NW 05:46:16 10° N
CENTAUR R/B 3.4 05:37:25 10° W 05:43:39 42° NNW 05:50:59 10° NE
SJ-7 4.5 05:39:39 10° NNE 05:43:42 82° ESE 05:47:42 10° SSW
CZ-2C R/B 3.9 05:40:40 10° NNW 05:43:50 17° NW 05:46:57 10° W
Cosmos 2082 Rocket 2.5 05:38:57 10° SW 05:44:22 48° NW 05:49:50 10° NNE
ISS -3.6 05:42:21 10° WSW 05:45:42 72° S 05:49:04 10° E
Cosmos 614 Rocket 3.9 05:41:04 10° SW 05:46:11 69° WNW 05:51:19 10° NNE
SL-16 R/B 2.4 05:43:58 10° NW 05:49:32 57° WSW 05:55:04 10° S
Cosmos 2026 Rocket 4.4 05:43:39 10° SW 05:49:44 45° WNW 05:55:50 10° N
Cosmos 2251 Rocket 4.1 05:49:03 10° WSW 05:54:01 38° NW 05:59:01 10° NNE
Meteor 1-31 Rocket 4.0 05:52:01 10° N 05:55:08 23° WNW 05:58:15 10° WSW
Cosmos 1455 2.7 05:52:48 10° NNW 05:56:27 40° W 06:00:05 10° SSW
Lacrosse 4 Rocket 3.1 05:55:23 10° WNW 05:58:02 17° NNW 06:00:43 10° NNE
COSMOS 2428 4.0 05:53:12 10° NNW 05:58:36 39° NE 06:03:57 10° ESE
Cosmos 2333 Rocket 3.2 05:54:26 10° NNW 05:59:57 47° NE 06:05:23 10° ESE
YAOGAN 6 2.7 05:56:41 10° NNE 06:00:24 86° ESE 06:04:04 10° SSW
CZ-4B R/B 3.6 05:57:07 10° N 06:00:43 33° WNW 06:04:27 10° SW
Spot 2 4.2 05:56:32 10° N 06:00:59 67° WNW 06:05:42 10° SSW
